Orbital Elements at Epoch 2459200.5 (2020-Dec-17.0) TDB
Reference: JPL 14 (heliocentric ecliptic J2000)
Element | Value | Uncertainty (1-sigma) | Units |
e | .0346727444528566 | 3.9716e-08 | |
a | 3.062119571759876 | 3.1665e-08 | au |
q | 2.955947482364155 | 1.2638e-07 | au |
i | 4.326749089826287 | 4.6273e-06 | deg |
node | 282.5543467111372 | 6.0326e-05 | deg |
peri | 95.88022423998841 | 9.6707e-05 | deg |
M | 294.4931143242023 | 7.8284e-05 | deg |
tp | 2459556.636180628197 (2021-Dec-08.13618063) | 0.00042832 | TDB |
period | 1957.183946443043 5.36 | 3.0359e-05 8.312e-08 | d yr |
n | .1839377441523873 | 2.8531e-09 | deg/d |
Q | 3.168291661155596 | 3.2763e-08 | au |
|
| | Orbit Determination Parameters
Additional Information
|